Weerspreuk van de week: Op de laatste oktober (3110), houdt de natuur zich sober.
Het weer levert geen direct gevaar op.    Er zijn geen waarschuwingen afgegeven.

Onweer radar Meer informatie blitzortung!


Regen radar Meer informatie rain snow radar


Bekijk deze sites ook eens:

Awekas

Canon

Het weer actueel

Nieuw horloge

FPL Automotive (TIP)

Paradigit

Autostekkers.nl (TIP)

Over Luyksgestel

Zooplus

De Kempen, mijn omgeving

Douglas

BOL.com

Weerstation Noordbergum

Inktweb

Weerstation Hapert

Weerstation Hoogeloon

Youfone

Weerstation Son&Breugel

Weerstation Castaert

Weerstation Tilburg Reeshof

Weerstation Scheulder

Weerverwachting Samos

Samos actueel

Weerwoord (forum)

Griekenlandforum

Wolven in Nederland



ILUYKSGE3 History tables / reports. Script startWUhistory.php

Select another period ( hide this area )

Eenheden Periode Custom range Directly to
Metrisch Engels Beide
Dagelijkse Wekelijkse Maandelijkse Jaarlijkse
use both date-selectors for a custom range
previous Dag
With this date

WeatherUnderground graphs for this period ( click here ) Loading the graph can take up to a minute!


Dagelijkse Samenvatting Dinsdag Oct 26 2021
Tijd Temp. ( °C ) Dew pt. ( °C ) Wind ( km/h ) van Windvlaag ( km/h ) Luchtdruk ( hPa ) Humid.( % ) Rainrate ( cm )
Hoog15,3 11,9 26,0 WZW ( 495/1413 ) 26,0 1020,7 96 -
Gemiddeld11,8 10,2 5,8 Kalm #64/243 13,4 1018,6 90 -
Laag9,1 8,3 -   0,0 1016,9 78 -
Dagelijkse Tabular details for Dinsdag Oct 26 2021
Tijd Temp. ( °C ) Dew pt. ( °C ) Wind ( km/h ) van Windvlaag ( km/h ) Luchtdruk ( hPa ) Humid.( % ) Rainrate ( cm )
00:04 10,8 9,7   Kalm 2,0 1016,9 93 -
00:09 10,8 9,7   Kalm 6,0 1016,9 93 -
00:15 10,7 9,6 1,0 ZZW 8,0 1016,9 93 -
00:20 10,6 9,5 6,0 ZW 10,0 1016,9 93 -
00:25 10,6 9,5   Kalm 3,0 1016,9 93 -
00:30 10,6 9,7   Kalm 8,0 1016,9 94 -
00:35 10,6 9,7 8,0 ZZW 8,0 1016,9 94 -
00:40 10,6 9,7   Kalm 6,0 1016,9 94 -
00:45 10,7 9,8 3,0 ZW 8,0 1016,9 94 -
00:50 10,7 9,8 3,0 WZW 11,0 1016,9 94 -
00:55 10,7 9,8   Kalm 2,0 1016,9 94 -
01:00 10,7 9,8   Kalm 6,0 1016,9 94 -
01:05 10,7 9,8 5,0 WZW 15,0 1016,9 94 -
01:10 10,7 9,8 1,0 ZW 10,0 1016,9 94 -
01:15 10,8 9,9 3,0 ZZO 15,0 1016,9 94 -
01:20 10,8 9,9   Kalm 11,0 1016,9 94 -
01:25 10,8 9,9 14,0 ZW 15,0 1016,9 94 -
01:30 10,8 9,9 6,0 ZW 16,0 1016,9 94 -
01:35 10,8 9,9 6,0 WZW 10,0 1016,9 94 -
01:40 10,8 9,9 3,0 ZW 10,0 1016,9 94 -
01:45 10,8 9,9   Kalm 11,0 1016,9 94 -
01:50 10,8 9,9 1,0 WZW 11,0 1016,9 94 -
01:55 10,8 9,9 6,0 Zuiden 13,0 1016,9 94 -
02:00 10,7 9,8   Kalm 10,0 1016,9 94 -
02:05 10,7 9,8 6,0 ZZW 15,0 1016,9 94 -
02:10 10,7 9,8 1,0 WZW 15,0 1016,9 94 -
02:15 10,7 9,8   Kalm 13,0 1016,9 94 -
02:20 10,7 9,8 1,0 ZO 11,0 1016,9 94 -
02:25 10,7 9,8   Kalm 16,0 1016,9 94 -
02:30 10,7 9,8 6,0 ZW 13,0 1016,9 94 -
02:35 10,7 9,8 1,0 WZW 10,0 1016,9 94 -
02:40 10,8 9,9 13,0 ZW 15,0 1016,9 94 -
02:45 10,7 9,8 1,0 ZW 11,0 1016,9 94 -
02:50 10,7 9,8 3,0 Zuiden 11,0 1016,9 94 -
02:55 10,7 9,8 10,0 Westen 10,0 1016,9 94 -
03:00 10,7 9,8 5,0 ZW 11,0 1017,3 94 -
03:05 10,7 9,8   Kalm 13,0 1017,3 94 -
03:10 10,8 10,0 5,0 ZW 10,0 1017,3 95 -
03:15 10,7 9,8 10,0 ZW 13,0 1017,3 94 -
03:20 10,7 9,8   Kalm 13,0 1017,3 94 -
03:25 10,7 9,9 6,0 ZW 10,0 1017,3 95 -
03:31 10,6 9,7   Kalm 10,0 1017,3 94 -
03:36 10,6 9,7 8,0 WZW 8,0 1017,3 94 -
03:41 10,5 9,6   Kalm 6,0 1017,3 94 -
03:46 10,5 9,6   Kalm 10,0 1017,3 94 -
03:51 10,4 9,5 1,0 ZZW 11,0 1017,3 94 -
03:56 10,4 9,6   Kalm 11,0 1017,3 95 -
04:01 10,4 9,6   Kalm 11,0 1017,3 95 -
04:06 10,3 9,5   Kalm   1017,3 95 -
04:11 10,3 9,5   Kalm 8,0 1017,3 95 -
04:16 10,3 9,5   Kalm 3,0 1017,3 95 -
04:21 10,2 9,4 3,0 ZW 10,0 1017,3 95 -
04:26 10,2 9,4 1,0 ZW 8,0 1017,3 95 -
04:31 10,2 9,4 1,0 ZW 10,0 1017,3 95 -
04:36 10,2 9,4   Kalm 15,0 1017,3 95 -
04:41 10,2 9,4 1,0 ZZW 8,0 1017,3 95 -
04:46 10,1 9,3 6,0 WZW 6,0 1017,3 95 -
04:51 10,1 9,3   Kalm 11,0 1017,3 95 -
04:56 10,0 9,2 3,0 ZW 8,0 1017,3 95 -
05:01 9,9 9,1   Kalm 11,0 1017,3 95 -
05:06 9,9 9,1 6,0 WZW 10,0 1017,3 95 -
05:11 9,8 9,0 1,0 WZW 6,0 1017,3 95 -
05:16 9,8 9,0 1,0 ZW 11,0 1017,3 95 -
05:21 9,7 8,9   Kalm 2,0 1017,3 95 -
05:26 9,8 9,0 8,0 WZW 11,0 1017,3 95 -
05:31 9,8 9,0   Kalm 6,0 1017,6 95 -
05:36 9,8 9,0   Kalm 6,0 1017,6 95 -
05:41 9,8 9,0   Kalm 3,0 1017,6 95 -
05:46 9,9 9,1 1,0 ZW 10,0 1017,6 95 -
05:51 9,9 9,1 1,0 WZW 3,0 1017,6 95 -
05:56 9,9 9,1 1,0 ZW 10,0 1017,6 95 -
06:02 9,9 9,1   Kalm 6,0 1017,6 95 -
06:07 9,9 9,1 1,0 ZW 3,0 1017,6 95 -
06:12 9,8 9,0   Kalm 11,0 1017,6 95 -
06:17 9,8 9,0   Kalm 11,0 1017,6 95 -
06:22 9,8 9,0 5,0 ZW 8,0 1017,6 95 -
06:27 9,8 9,0   Kalm 11,0 1017,6 95 -
06:32 9,8 9,0 8,0 ZW 8,0 1018,0 95 -
06:37 9,7 8,9 5,0 WZW 11,0 1018,0 95 -
06:42 9,7 8,9 10,0 ZW 13,0 1018,0 95 -
06:47 9,6 8,8 8,0 ZW 8,0 1018,0 95 -
06:52 9,6 8,8   Kalm 11,0 1018,0 95 -
06:57 9,4 8,6 8,0 WZW 8,0 1018,0 95 -
07:02 9,4 8,6   Kalm 2,0 1018,3 95 -
07:07 9,4 8,6 6,0 WZW 8,0 1018,3 95 -
07:12 9,3 8,5 1,0 ZZW 6,0 1018,3 95 -
07:17 9,2 8,4   Kalm   1018,0 95 -
07:22 9,2 8,4   Kalm 8,0 1018,0 95 -
07:27 9,1 8,3   Kalm 8,0 1018,0 95 -
07:32 9,1 8,3   Kalm 10,0 1018,3 95 -
07:37 9,1 8,5   Kalm 8,0 1018,3 96 -
07:43 9,1 8,5 10,0 ZW 10,0 1018,3 96 -
07:48 9,2 8,6 6,0 ZW 11,0 1018,3 96 -
07:53 9,3 8,7 6,0 ZW 10,0 1018,3 96 -
07:58 9,3 8,7   Kalm 11,0 1018,3 96 -
08:03 9,4 8,8 14,0 WZW 15,0 1018,3 96 -
08:08 9,4 8,8 11,0 WZW 11,0 1018,3 96 -
08:13 9,5 8,9 6,0 WZW 13,0 1018,3 96 -
08:18 9,6 9,0 8,0 WZW 11,0 1018,6 96 -
08:23 9,6 9,0   Kalm 11,0 1018,6 96 -
08:28 9,6 9,0   Kalm 6,0 1018,6 96 -
08:33 9,6 9,0 8,0 WZW 13,0 1019,0 96 -
08:38 9,6 9,0 3,0 ZW 11,0 1019,0 96 -
08:43 9,6 9,0 14,0 ZW 15,0 1019,0 96 -
08:48 9,6 9,0   Kalm 13,0 1019,0 96 -
08:53 9,5 8,9 3,0 ZZO 6,0 1019,0 96 -
08:58 9,6 9,0   Kalm 11,0 1019,0 96 -
09:03 9,5 8,9 1,0 Zuiden 8,0 1019,0 96 -
09:08 9,6 9,0 10,0 WZW 11,0 1019,0 96 -
09:13 9,6 9,0   Kalm 16,0 1019,0 96 -
09:18 9,6 9,0 8,0 ZW 11,0 1019,0 96 -
09:23 9,7 9,1 6,0 ZW 13,0 1019,0 96 -
09:28 9,7 9,1 5,0 WZW 15,0 1019,0 96 -
09:33 9,7 9,1 6,0 ZW 15,0 1019,3 96 -
09:38 9,7 9,1 18,0 WZW 19,0 1019,3 96 -
09:43 9,8 9,2 8,0 ZW 13,0 1019,3 96 -
09:48 9,8 9,2 8,0 WZW 11,0 1019,3 96 -
09:53 9,9 9,3 11,0 ZW 11,0 1019,3 96 -
09:58 10,0 9,4 6,0 ZW 13,0 1019,3 96 -
10:03 10,1 9,5 11,0 WZW 11,0 1019,3 96 -
10:08 10,2 9,6 13,0 ZZW 16,0 1019,3 96 -
10:13 10,3 9,7 10,0 WZW 21,0 1019,3 96 -
10:18 10,4 9,8   Kalm 11,0 1019,3 96 -
10:23 10,6 10,0   Kalm 15,0 1019,3 96 -
10:28 10,7 10,1   Kalm 8,0 1019,3 96 -
10:33 10,7 10,1 8,0 ZW 15,0 1019,3 96 -
10:38 10,8 10,2   Kalm 13,0 1019,3 96 -
10:43 10,8 10,2 1,0 Zuiden 16,0 1019,3 96 -
10:48 10,8 10,2 8,0 ZZW 16,0 1019,3 96 -
10:53 10,9 10,3   Kalm 15,0 1019,3 96 -
10:58 11,0 10,4 13,0 ZW 19,0 1019,3 96 -
11:03 11,1 10,5 11,0 WZW 11,0 1019,3 96 -
11:08 11,2 10,6   Kalm 13,0 1019,3 96 -
11:13 11,4 10,8 10,0 WZW 18,0 1019,3 96 -
11:18 11,4 10,8 6,0 ZZW 16,0 1019,3 96 -
11:23 11,5 10,9   Kalm 15,0 1019,3 96 -
11:28 11,7 11,1 8,0 ZW 18,0 1019,3 96 -
11:33 11,8 11,2 10,0 ZW 15,0 1019,3 96 -
11:38 11,9 11,3 8,0 WZW 15,0 1019,3 96 -
11:43 12,0 11,2 1,0 ZZW 19,0 1019,3 95 -
11:48 12,1 11,3 11,0 ZW 23,0 1019,3 95 -
11:53 12,1 11,3 18,0 ZW 19,0 1019,3 95 -
11:58 12,2 11,4   Kalm 13,0 1019,3 95 -
12:03 12,2 11,4 1,0 WZW 11,0 1019,6 95 -
12:08 12,3 11,4 11,0 WZW 13,0 1019,6 94 -
12:13 12,3 11,4 6,0 ZZW 18,0 1019,6 94 -
12:18 12,4 11,5 8,0 ZZW 19,0 1019,6 94 -
12:23 12,6 11,5 8,0 ZW 21,0 1019,6 93 -
12:28 12,8 11,7 16,0 Zuiden 16,0 1019,6 93 -
12:33 13,3 11,9 8,0 WZW 24,0 1019,3 91 -
12:38 13,6 11,8 3,0 ZZW 19,0 1019,3 89 -
12:43 13,6 11,6 18,0 Zuiden 23,0 1019,3 88 -
12:48 13,5 11,6 18,0 Zuiden 21,0 1019,6 88 -
12:53 13,5 11,6   Kalm 16,0 1019,6 88 -
12:58 13,8 11,7 10,0 WZW 19,0 1019,6 87 -
13:03 14,3 11,8 1,0 ZW 21,0 1019,3 85 -
13:09 14,5 11,8 11,0 Zuiden 19,0 1019,3 84 -
13:14 14,2 11,5 11,0 ZW 11,0 1019,3 84 -
13:19 14,3 11,8 1,0 ZZW 13,0 1019,3 85 -
13:24 14,3 11,5 14,0 WZW 21,0 1019,3 83 -
13:29 14,3 11,6 6,0 WZW 11,0 1019,3 84 -
13:34 14,7 11,8 18,0 ZZW 18,0 1019,3 83 -
13:39 14,7 11,7 14,0 ZW 18,0 1019,3 82 -
13:44 14,6 11,6 6,0 Zuiden 23,0 1019,3 82 -
13:49 14,4 11,4   Kalm 19,0 1019,3 82 -
13:54 14,3 11,5 8,0 WZW 15,0 1019,3 83 -
13:59 14,3 11,5 11,0 WZW 26,0 1019,3 83 -
14:04 14,4 11,5 10,0 ZZO 15,0 1019,3 83 -
14:09 14,7 11,8 13,0 ZW 23,0 1019,3 83 -
14:14 15,1 11,9 8,0 WZW 19,0 1019,3 81 -
14:19 15,1 11,9 6,0 ZW 19,0 1019,0 81 -
14:24 14,9 11,5 5,0 ZW 21,0 1019,0 80 -
14:29 14,8 11,6 21,0 ZZW 26,0 1019,0 81 -
14:34 14,8 11,6 1,0 ZZW 23,0 1019,0 81 -
14:39 14,9 11,5 11,0 ZW 19,0 1019,0 80 -
14:44 14,9 11,7 13,0 ZW 15,0 1019,0 81 -
14:49 14,8 11,4 8,0 ZW 26,0 1019,0 80 -
14:54 14,9 11,5 13,0 WZW 21,0 1019,0 80 -
14:59 14,9 11,5 16,0 WZW 21,0 1019,0 80 -
15:04 14,8 11,4 14,0 ZW 24,0 1019,0 80 -
15:09 14,8 11,4   Kalm 19,0 1019,0 80 -
15:14 14,8 11,6 26,0 Westen 26,0 1019,0 81 -
15:19 14,8 11,6 16,0 Zuiden 21,0 1019,0 81 -
15:24 14,9 11,5 18,0 WZW 21,0 1019,0 80 -
15:29 15,3 11,7 13,0 WZW 24,0 1019,0 79 -
15:34 15,2 11,4 6,0 WZW 16,0 1019,0 78 -
15:39 15,0 11,2 13,0 WNW 19,0 1019,0 78 -
15:44 14,9 11,3 13,0 WZW 19,0 1019,0 79 -
15:49 14,8 11,2 13,0 WZW 15,0 1019,0 79 -
15:54 14,8 11,4 8,0 WZW 21,0 1019,0 80 -
15:59 14,7 11,3 1,0 WZW 16,0 1019,0 80 -
16:04 14,6 11,4 3,0 WZW 10,0 1019,3 81 -
16:09 14,6 11,4 10,0 WZW 11,0 1019,3 81 -
16:14 14,6 11,4 8,0 Westen 11,0 1019,3 81 -
16:19 14,9 11,5 14,0 Westen 23,0 1019,3 80 -
16:24 14,8 11,2 8,0 WZW 16,0 1019,3 79 -
16:29 14,7 11,3 3,0 WZW 16,0 1019,3 80 -
16:34 14,8 11,4 1,0 WZW 21,0 1019,3 80 -
16:39 14,9 11,5 11,0 ZZW 21,0 1019,3 80 -
16:44 14,8 11,4 20,0 WZW 19,0 1019,3 80 -
16:49 14,6 11,2 16,0 ZW 21,0 1019,6 80 -
16:54 14,5 11,1 21,0 WZW 21,0 1019,6 80 -
16:59 14,4 11,0 6,0 ZW 19,0 1019,3 80 -
17:04 14,3 10,9 18,0 Westen 23,0 1019,3 80 -
17:09 14,3 10,9 10,0 Westen 26,0 1019,3 80 -
17:15 14,2 10,8 1,0 WZW 13,0 1019,6 80 -
17:20 14,1 10,9   Kalm 10,0 1019,6 81 -
17:25 14,1 10,9 6,0 WNW 16,0 1019,6 81 -
17:30 14,0 10,8 10,0 ZW 13,0 1019,6 81 -
17:35 13,9 10,7 3,0 WZW 15,0 1019,6 81 -
17:40 13,9 10,9 11,0 ZW 11,0 1019,6 82 -
17:45 13,8 10,8 8,0 Westen 13,0 1019,6 82 -
17:50 13,8 10,8 8,0 WZW 11,0 1019,6 82 -
17:55 13,7 10,7 13,0 WZW 15,0 1019,6 82 -
18:00 13,7 10,7 6,0 WZW 18,0 1019,6 82 -
18:05 13,5 10,5 10,0 WZW 13,0 1019,6 82 -
18:10 13,4 10,4 6,0 ZZW 11,0 1019,6 82 -
18:15 13,3 10,5   Kalm 13,0 1020,0 83 -
18:20 13,3 10,5 6,0 Westen 10,0 1020,0 83 -
18:25 13,3 10,5   Kalm 10,0 1020,0 83 -
18:30 13,3 10,7 8,0 Westen 13,0 1020,0 84 -
18:35 13,2 10,6 13,0 ZZW 16,0 1020,0 84 -
18:40 13,2 10,4 6,0 Zuiden 11,0 1020,0 83 -
18:45 13,2 10,4 6,0 ZW 15,0 1020,0 83 -
18:50 13,1 10,3 8,0 ZW 18,0 1020,0 83 -
18:55 12,9 10,3 8,0 Zuiden 15,0 1020,0 84 -
19:00 12,9 10,3 8,0 ZZW 15,0 1020,3 84 -
19:05 12,8 10,2 6,0 ZW 11,0 1020,3 84 -
19:10 12,7 10,2 8,0 Westen 13,0 1020,3 85 -
19:15 12,6 10,1 11,0 ZZW 18,0 1020,3 85 -
19:20 12,5 10,0   Kalm 16,0 1020,3 85 -
19:25 12,5 10,0   Kalm 13,0 1020,3 85 -
19:30 12,5 10,2 6,0 Zuiden 13,0 1020,3 86 -
19:35 12,4 10,1   Kalm 10,0 1020,3 86 -
19:40 12,4 10,1 11,0 ZW 16,0 1020,3 86 -
19:45 12,3 10,0 3,0 ZZW 11,0 1020,3 86 -
19:50 12,3 10,0 1,0 ZW 18,0 1020,3 86 -
19:55 12,3 10,0 11,0 Westen 18,0 1020,3 86 -
20:00 12,3 10,0   Kalm 15,0 1020,3 86 -
20:05 12,3 10,0 11,0 ZZW 11,0 1020,3 86 -
20:10 12,3 10,2 6,0 WZW 15,0 1020,3 87 -
20:15 12,3 10,2 6,0 ZZW 16,0 1020,7 87 -
20:20 12,3 10,2 13,0 ZW 15,0 1020,7 87 -
Dagelijkse Samenvatting Dinsdag Oct 26 2021
Tijd Temp. ( °C ) Dew pt. ( °C ) Wind ( km/h ) van Windvlaag ( km/h ) Luchtdruk ( hPa ) Humid.( % ) Rainrate ( cm )
Hoog15,3 11,9 26,0 WZW ( 495/1413 ) 26,0 1020,7 96 -
Gemiddeld11,8 10,2 5,8 Kalm #64/243 13,4 1018,6 90 -
Laag9,1 8,3 -   0,0 1016,9 78 -
Dagelijkse Tabular details for Dinsdag Oct 26 2021
Tijd Temp. ( °C ) Dew pt. ( °C ) Wind ( km/h ) van Windvlaag ( km/h ) Luchtdruk ( hPa ) Humid.( % ) Rainrate ( cm )
00:04 10,8 9,7   Kalm 2,0 1016,9 93 -
00:09 10,8 9,7   Kalm 6,0 1016,9 93 -
00:15 10,7 9,6 1,0 ZZW 8,0 1016,9 93 -
00:20 10,6 9,5 6,0 ZW 10,0 1016,9 93 -
00:25 10,6 9,5   Kalm 3,0 1016,9 93 -
00:30 10,6 9,7   Kalm 8,0 1016,9 94 -
00:35 10,6 9,7 8,0 ZZW 8,0 1016,9 94 -
00:40 10,6 9,7   Kalm 6,0 1016,9 94 -
00:45 10,7 9,8 3,0 ZW 8,0 1016,9 94 -
00:50 10,7 9,8 3,0 WZW 11,0 1016,9 94 -
00:55 10,7 9,8   Kalm 2,0 1016,9 94 -
01:00 10,7 9,8   Kalm 6,0 1016,9 94 -
01:05 10,7 9,8 5,0 WZW 15,0 1016,9 94 -
01:10 10,7 9,8 1,0 ZW 10,0 1016,9 94 -
01:15 10,8 9,9 3,0 ZZO 15,0 1016,9 94 -
01:20 10,8 9,9   Kalm 11,0 1016,9 94 -
01:25 10,8 9,9 14,0 ZW 15,0 1016,9 94 -
01:30 10,8 9,9 6,0 ZW 16,0 1016,9 94 -
01:35 10,8 9,9 6,0 WZW 10,0 1016,9 94 -
01:40 10,8 9,9 3,0 ZW 10,0 1016,9 94 -
01:45 10,8 9,9   Kalm 11,0 1016,9 94 -
01:50 10,8 9,9 1,0 WZW 11,0 1016,9 94 -
01:55 10,8 9,9 6,0 Zuiden 13,0 1016,9 94 -
02:00 10,7 9,8   Kalm 10,0 1016,9 94 -
02:05 10,7 9,8 6,0 ZZW 15,0 1016,9 94 -
02:10 10,7 9,8 1,0 WZW 15,0 1016,9 94 -
02:15 10,7 9,8   Kalm 13,0 1016,9 94 -
02:20 10,7 9,8 1,0 ZO 11,0 1016,9 94 -
02:25 10,7 9,8   Kalm 16,0 1016,9 94 -
02:30 10,7 9,8 6,0 ZW 13,0 1016,9 94 -
02:35 10,7 9,8 1,0 WZW 10,0 1016,9 94 -
02:40 10,8 9,9 13,0 ZW 15,0 1016,9 94 -
02:45 10,7 9,8 1,0 ZW 11,0 1016,9 94 -
02:50 10,7 9,8 3,0 Zuiden 11,0 1016,9 94 -
02:55 10,7 9,8 10,0 Westen 10,0 1016,9 94 -
03:00 10,7 9,8 5,0 ZW 11,0 1017,3 94 -
03:05 10,7 9,8   Kalm 13,0 1017,3 94 -
03:10 10,8 10,0 5,0 ZW 10,0 1017,3 95 -
03:15 10,7 9,8 10,0 ZW 13,0 1017,3 94 -
03:20 10,7 9,8   Kalm 13,0 1017,3 94 -
03:25 10,7 9,9 6,0 ZW 10,0 1017,3 95 -
03:31 10,6 9,7   Kalm 10,0 1017,3 94 -
03:36 10,6 9,7 8,0 WZW 8,0 1017,3 94 -
03:41 10,5 9,6   Kalm 6,0 1017,3 94 -
03:46 10,5 9,6   Kalm 10,0 1017,3 94 -
03:51 10,4 9,5 1,0 ZZW 11,0 1017,3 94 -
03:56 10,4 9,6   Kalm 11,0 1017,3 95 -
04:01 10,4 9,6   Kalm 11,0 1017,3 95 -
04:06 10,3 9,5   Kalm   1017,3 95 -
04:11 10,3 9,5   Kalm 8,0 1017,3 95 -
04:16 10,3 9,5   Kalm 3,0 1017,3 95 -
04:21 10,2 9,4 3,0 ZW 10,0 1017,3 95 -
04:26 10,2 9,4 1,0 ZW 8,0 1017,3 95 -
04:31 10,2 9,4 1,0 ZW 10,0 1017,3 95 -
04:36 10,2 9,4   Kalm 15,0 1017,3 95 -
04:41 10,2 9,4 1,0 ZZW 8,0 1017,3 95 -
04:46 10,1 9,3 6,0 WZW 6,0 1017,3 95 -
04:51 10,1 9,3   Kalm 11,0 1017,3 95 -
04:56 10,0 9,2 3,0 ZW 8,0 1017,3 95 -
05:01 9,9 9,1   Kalm 11,0 1017,3 95 -
05:06 9,9 9,1 6,0 WZW 10,0 1017,3 95 -
05:11 9,8 9,0 1,0 WZW 6,0 1017,3 95 -
05:16 9,8 9,0 1,0 ZW 11,0 1017,3 95 -
05:21 9,7 8,9   Kalm 2,0 1017,3 95 -
05:26 9,8 9,0 8,0 WZW 11,0 1017,3 95 -
05:31 9,8 9,0   Kalm 6,0 1017,6 95 -
05:36 9,8 9,0   Kalm 6,0 1017,6 95 -
05:41 9,8 9,0   Kalm 3,0 1017,6 95 -
05:46 9,9 9,1 1,0 ZW 10,0 1017,6 95 -
05:51 9,9 9,1 1,0 WZW 3,0 1017,6 95 -
05:56 9,9 9,1 1,0 ZW 10,0 1017,6 95 -
06:02 9,9 9,1   Kalm 6,0 1017,6 95 -
06:07 9,9 9,1 1,0 ZW 3,0 1017,6 95 -
06:12 9,8 9,0   Kalm 11,0 1017,6 95 -
06:17 9,8 9,0   Kalm 11,0 1017,6 95 -
06:22 9,8 9,0 5,0 ZW 8,0 1017,6 95 -
06:27 9,8 9,0   Kalm 11,0 1017,6 95 -
06:32 9,8 9,0 8,0 ZW 8,0 1018,0 95 -
06:37 9,7 8,9 5,0 WZW 11,0 1018,0 95 -
06:42 9,7 8,9 10,0 ZW 13,0 1018,0 95 -
06:47 9,6 8,8 8,0 ZW 8,0 1018,0 95 -
06:52 9,6 8,8   Kalm 11,0 1018,0 95 -
06:57 9,4 8,6 8,0 WZW 8,0 1018,0 95 -
07:02 9,4 8,6   Kalm 2,0 1018,3 95 -
07:07 9,4 8,6 6,0 WZW 8,0 1018,3 95 -
07:12 9,3 8,5 1,0 ZZW 6,0 1018,3 95 -
07:17 9,2 8,4   Kalm   1018,0 95 -
07:22 9,2 8,4   Kalm 8,0 1018,0 95 -
07:27 9,1 8,3   Kalm 8,0 1018,0 95 -
07:32 9,1 8,3   Kalm 10,0 1018,3 95 -
07:37 9,1 8,5   Kalm 8,0 1018,3 96 -
07:43 9,1 8,5 10,0 ZW 10,0 1018,3 96 -
07:48 9,2 8,6 6,0 ZW 11,0 1018,3 96 -
07:53 9,3 8,7 6,0 ZW 10,0 1018,3 96 -
07:58 9,3 8,7   Kalm 11,0 1018,3 96 -
08:03 9,4 8,8 14,0 WZW 15,0 1018,3 96 -
08:08 9,4 8,8 11,0 WZW 11,0 1018,3 96 -
08:13 9,5 8,9 6,0 WZW 13,0 1018,3 96 -
08:18 9,6 9,0 8,0 WZW 11,0 1018,6 96 -
08:23 9,6 9,0   Kalm 11,0 1018,6 96 -
08:28 9,6 9,0   Kalm 6,0 1018,6 96 -
08:33 9,6 9,0 8,0 WZW 13,0 1019,0 96 -
08:38 9,6 9,0 3,0 ZW 11,0 1019,0 96 -
08:43 9,6 9,0 14,0 ZW 15,0 1019,0 96 -
08:48 9,6 9,0   Kalm 13,0 1019,0 96 -
08:53 9,5 8,9 3,0 ZZO 6,0 1019,0 96 -
08:58 9,6 9,0   Kalm 11,0 1019,0 96 -
09:03 9,5 8,9 1,0 Zuiden 8,0 1019,0 96 -
09:08 9,6 9,0 10,0 WZW 11,0 1019,0 96 -
09:13 9,6 9,0   Kalm 16,0 1019,0 96 -
09:18 9,6 9,0 8,0 ZW 11,0 1019,0 96 -
09:23 9,7 9,1 6,0 ZW 13,0 1019,0 96 -
09:28 9,7 9,1 5,0 WZW 15,0 1019,0 96 -
09:33 9,7 9,1 6,0 ZW 15,0 1019,3 96 -
09:38 9,7 9,1 18,0 WZW 19,0 1019,3 96 -
09:43 9,8 9,2 8,0 ZW 13,0 1019,3 96 -
09:48 9,8 9,2 8,0 WZW 11,0 1019,3 96 -
09:53 9,9 9,3 11,0 ZW 11,0 1019,3 96 -
09:58 10,0 9,4 6,0 ZW 13,0 1019,3 96 -
10:03 10,1 9,5 11,0 WZW 11,0 1019,3 96 -
10:08 10,2 9,6 13,0 ZZW 16,0 1019,3 96 -
10:13 10,3 9,7 10,0 WZW 21,0 1019,3 96 -
10:18 10,4 9,8   Kalm 11,0 1019,3 96 -
10:23 10,6 10,0   Kalm 15,0 1019,3 96 -
10:28 10,7 10,1   Kalm 8,0 1019,3 96 -
10:33 10,7 10,1 8,0 ZW 15,0 1019,3 96 -
10:38 10,8 10,2   Kalm 13,0 1019,3 96 -
10:43 10,8 10,2 1,0 Zuiden 16,0 1019,3 96 -
10:48 10,8 10,2 8,0 ZZW 16,0 1019,3 96 -
10:53 10,9 10,3   Kalm 15,0 1019,3 96 -
10:58 11,0 10,4 13,0 ZW 19,0 1019,3 96 -
11:03 11,1 10,5 11,0 WZW 11,0 1019,3 96 -
11:08 11,2 10,6   Kalm 13,0 1019,3 96 -
11:13 11,4 10,8 10,0 WZW 18,0 1019,3 96 -
11:18 11,4 10,8 6,0 ZZW 16,0 1019,3 96 -
11:23 11,5 10,9   Kalm 15,0 1019,3 96 -
11:28 11,7 11,1 8,0 ZW 18,0 1019,3 96 -
11:33 11,8 11,2 10,0 ZW 15,0 1019,3 96 -
11:38 11,9 11,3 8,0 WZW 15,0 1019,3 96 -
11:43 12,0 11,2 1,0 ZZW 19,0 1019,3 95 -
11:48 12,1 11,3 11,0 ZW 23,0 1019,3 95 -
11:53 12,1 11,3 18,0 ZW 19,0 1019,3 95 -
11:58 12,2 11,4   Kalm 13,0 1019,3 95 -
12:03 12,2 11,4 1,0 WZW 11,0 1019,6 95 -
12:08 12,3 11,4 11,0 WZW 13,0 1019,6 94 -
12:13 12,3 11,4 6,0 ZZW 18,0 1019,6 94 -
12:18 12,4 11,5 8,0 ZZW 19,0 1019,6 94 -
12:23 12,6 11,5 8,0 ZW 21,0 1019,6 93 -
12:28 12,8 11,7 16,0 Zuiden 16,0 1019,6 93 -
12:33 13,3 11,9 8,0 WZW 24,0 1019,3 91 -
12:38 13,6 11,8 3,0 ZZW 19,0 1019,3 89 -
12:43 13,6 11,6 18,0 Zuiden 23,0 1019,3 88 -
12:48 13,5 11,6 18,0 Zuiden 21,0 1019,6 88 -
12:53 13,5 11,6   Kalm 16,0 1019,6 88 -
12:58 13,8 11,7 10,0 WZW 19,0 1019,6 87 -
13:03 14,3 11,8 1,0 ZW 21,0 1019,3 85 -
13:09 14,5 11,8 11,0 Zuiden 19,0 1019,3 84 -
13:14 14,2 11,5 11,0 ZW 11,0 1019,3 84 -
13:19 14,3 11,8 1,0 ZZW 13,0 1019,3 85 -
13:24 14,3 11,5 14,0 WZW 21,0 1019,3 83 -
13:29 14,3 11,6 6,0 WZW 11,0 1019,3 84 -
13:34 14,7 11,8 18,0 ZZW 18,0 1019,3 83 -
13:39 14,7 11,7 14,0 ZW 18,0 1019,3 82 -
13:44 14,6 11,6 6,0 Zuiden 23,0 1019,3 82 -
13:49 14,4 11,4   Kalm 19,0 1019,3 82 -
13:54 14,3 11,5 8,0 WZW 15,0 1019,3 83 -
13:59 14,3 11,5 11,0 WZW 26,0 1019,3 83 -
14:04 14,4 11,5 10,0 ZZO 15,0 1019,3 83 -
14:09 14,7 11,8 13,0 ZW 23,0 1019,3 83 -
14:14 15,1 11,9 8,0 WZW 19,0 1019,3 81 -
14:19 15,1 11,9 6,0 ZW 19,0 1019,0 81 -
14:24 14,9 11,5 5,0 ZW 21,0 1019,0 80 -
14:29 14,8 11,6 21,0 ZZW 26,0 1019,0 81 -
14:34 14,8 11,6 1,0 ZZW 23,0 1019,0 81 -
14:39 14,9 11,5 11,0 ZW 19,0 1019,0 80 -
14:44 14,9 11,7 13,0 ZW 15,0 1019,0 81 -
14:49 14,8 11,4 8,0 ZW 26,0 1019,0 80 -
14:54 14,9 11,5 13,0 WZW 21,0 1019,0 80 -
14:59 14,9 11,5 16,0 WZW 21,0 1019,0 80 -
15:04 14,8 11,4 14,0 ZW 24,0 1019,0 80 -
15:09 14,8 11,4   Kalm 19,0 1019,0 80 -
15:14 14,8 11,6 26,0 Westen 26,0 1019,0 81 -
15:19 14,8 11,6 16,0 Zuiden 21,0 1019,0 81 -
15:24 14,9 11,5 18,0 WZW 21,0 1019,0 80 -
15:29 15,3 11,7 13,0 WZW 24,0 1019,0 79 -
15:34 15,2 11,4 6,0 WZW 16,0 1019,0 78 -
15:39 15,0 11,2 13,0 WNW 19,0 1019,0 78 -
15:44 14,9 11,3 13,0 WZW 19,0 1019,0 79 -
15:49 14,8 11,2 13,0 WZW 15,0 1019,0 79 -
15:54 14,8 11,4 8,0 WZW 21,0 1019,0 80 -
15:59 14,7 11,3 1,0 WZW 16,0 1019,0 80 -
16:04 14,6 11,4 3,0 WZW 10,0 1019,3 81 -
16:09 14,6 11,4 10,0 WZW 11,0 1019,3 81 -
16:14 14,6 11,4 8,0 Westen 11,0 1019,3 81 -
16:19 14,9 11,5 14,0 Westen 23,0 1019,3 80 -
16:24 14,8 11,2 8,0 WZW 16,0 1019,3 79 -
16:29 14,7 11,3 3,0 WZW 16,0 1019,3 80 -
16:34 14,8 11,4 1,0 WZW 21,0 1019,3 80 -
16:39 14,9 11,5 11,0 ZZW 21,0 1019,3 80 -
16:44 14,8 11,4 20,0 WZW 19,0 1019,3 80 -
16:49 14,6 11,2 16,0 ZW 21,0 1019,6 80 -
16:54 14,5 11,1 21,0 WZW 21,0 1019,6 80 -
16:59 14,4 11,0 6,0 ZW 19,0 1019,3 80 -
17:04 14,3 10,9 18,0 Westen 23,0 1019,3 80 -
17:09 14,3 10,9 10,0 Westen 26,0 1019,3 80 -
17:15 14,2 10,8 1,0 WZW 13,0 1019,6 80 -
17:20 14,1 10,9   Kalm 10,0 1019,6 81 -
17:25 14,1 10,9 6,0 WNW 16,0 1019,6 81 -
17:30 14,0 10,8 10,0 ZW 13,0 1019,6 81 -
17:35 13,9 10,7 3,0 WZW 15,0 1019,6 81 -
17:40 13,9 10,9 11,0 ZW 11,0 1019,6 82 -
17:45 13,8 10,8 8,0 Westen 13,0 1019,6 82 -
17:50 13,8 10,8 8,0 WZW 11,0 1019,6 82 -
17:55 13,7 10,7 13,0 WZW 15,0 1019,6 82 -
18:00 13,7 10,7 6,0 WZW 18,0 1019,6 82 -
18:05 13,5 10,5 10,0 WZW 13,0 1019,6 82 -
18:10 13,4 10,4 6,0 ZZW 11,0 1019,6 82 -
18:15 13,3 10,5   Kalm 13,0 1020,0 83 -
18:20 13,3 10,5 6,0 Westen 10,0 1020,0 83 -
18:25 13,3 10,5   Kalm 10,0 1020,0 83 -
18:30 13,3 10,7 8,0 Westen 13,0 1020,0 84 -
18:35 13,2 10,6 13,0 ZZW 16,0 1020,0 84 -
18:40 13,2 10,4 6,0 Zuiden 11,0 1020,0 83 -
18:45 13,2 10,4 6,0 ZW 15,0 1020,0 83 -
18:50 13,1 10,3 8,0 ZW 18,0 1020,0 83 -
18:55 12,9 10,3 8,0 Zuiden 15,0 1020,0 84 -
19:00 12,9 10,3 8,0 ZZW 15,0 1020,3 84 -
19:05 12,8 10,2 6,0 ZW 11,0 1020,3 84 -
19:10 12,7 10,2 8,0 Westen 13,0 1020,3 85 -
19:15 12,6 10,1 11,0 ZZW 18,0 1020,3 85 -
19:20 12,5 10,0   Kalm 16,0 1020,3 85 -
19:25 12,5 10,0   Kalm 13,0 1020,3 85 -
19:30 12,5 10,2 6,0 Zuiden 13,0 1020,3 86 -
19:35 12,4 10,1   Kalm 10,0 1020,3 86 -
19:40 12,4 10,1 11,0 ZW 16,0 1020,3 86 -
19:45 12,3 10,0 3,0 ZZW 11,0 1020,3 86 -
19:50 12,3 10,0 1,0 ZW 18,0 1020,3 86 -
19:55 12,3 10,0 11,0 Westen 18,0 1020,3 86 -
20:00 12,3 10,0   Kalm 15,0 1020,3 86 -
20:05 12,3 10,0 11,0 ZZW 11,0 1020,3 86 -
20:10 12,3 10,2 6,0 WZW 15,0 1020,3 87 -
20:15 12,3 10,2 6,0 ZZW 16,0 1020,7 87 -
20:20 12,3 10,2 13,0 ZW 15,0 1020,7 87 -

Download your copy of this data-set  here

Our weather-data as stored at Weather Underground. Script ontwikkeld door Jim McMurry. Rewritten for template use Leuven-Template

U vindt ons ook hier:

Het Weer Aktueel

UK Metoffice

European Weather Network

Weather Underground

AWEKAS